CZ-6A DEB

Satellite information

Favourite Embed

Satellite Type and Status

DEBRISIN ORBIT

Key statistics

Satellite CZ-6A DEB at a glance.

Uptime

968

Days in orbit

Revolutions

≈ 14.0

Per day

Orbit

SSO

Sun Synchronous Orbit

Inclination

98.9

Latest

Satellite identification and parameters

Extended collection of information and parameters for CZ-6A DEB.

Object identification

Identified? True

Debris? True

Object name: CZ-6A DEB

International designator: 2022-151KA

Object number (NORAD): 54522

Object ID (CCSDS): 54522

Country: PEOPLES REPUBLIC OF CHINA (PRC)

Current information (Y/N): Y

RCS size: SMALL

Orbital parameters

Period: 102.749 minutes

Inclination: 98.8515 deg

SMA: 7266.841 km

Apoapsis: 969.96 km

Periapsis: 807.451 km

RAAN: 172.2009 deg

Eccentricy: 0.0111815

Argument of periapsis: 312.9793 deg

Mean anomaly: 46.204 deg

Mean motion: 14.01471616 rev/day

Mean motion (dot): 0.00000663 rev/day2

B* drag term: 0.00044309 1/REarth

Two-line elements (TLE)

Creation date: July 5, 2025, 5:45 p.m.

Reference frame: TEME

Reference center: EARTH

Epoch: July 5, 2025, 12:45 p.m. UTC

TLE line 0: 0 CZ-6A DEB

TLE line 1: 1 54522U 22151KA 25186.53127113 .00000663 00000-0 44309-3 0 9992

TLE line 2: 2 54522 98.8515 172.2009 0111815 312.9793 46.2040 14.01471616135071

Live tracking on map

Real-time ground track for satellite CZ-6A DEB.

In-orbit conjunctions

A list of the most updated potential collisions computed for object CZ-6A DEB.

Target Orbit TCA Probability of collision Miss distance Type
DIAMANT B-P4 R/B LEO 2024-08-10 09:44:22 0.0001499114 244.0 (m) ROCKET BODY
FENGYUN 1C DEB SSO 2024-06-04 22:21:39 0.0001352708 331.0 (m) DEBRIS

Associated space launch

Chinese satellite reported for atmospheric/ocean/environmental/spatial parameter research purposes, details TBD.

CZ-6A DEB was lifted into orbit during the mission ‘Long March 6A | Yunhai 3’, on board a Long March 6A space rocket.

The launch took place on Nov. 11, 2022, 10:52 p.m. from Launch Complex 9A.

For more information about the launch, click the button.

Launch to space Long March 6A | Yunhai 3
Long March 6A | Yunhai 3

Agency: N/A

Status: Launch Successful

Launch date: Nov. 11, 2022, 10:52 p.m. UTC

Rocket: Long March 6A

Launch pad: Launch Complex 9A

Location: Taiyuan Satellite Launch Center, People's Republic of China

...

Latest news about this satellite

There are no fresh news available about this satellite. Check back as we update our databases every day.


Newsletter sign-up

Weekly statistics, charts and insights to help you stay on top of the space industry.